Temperature
18 18 18 18 18 18 18 18 18 18 18 18 18 18 18 18 18 18 18 18 18 18 18 18 18 18 18 17 18 18 17 17 17 18 18 17 17 17 17 17 17 17 17
18 18 18 18 18 18 18 18 18 18 18 18 18 18 18 18 18 18 18 18 18 18 18 18 18 17 17 18 18 18 17 17 17 17 17 17 17 17 17 17 17 17 17
18 18 18 18 18 18 18 18 18 18 18 18 18 18 18 18 18 18 18 18 18 18 18 18 18 18 18 18 18 17 17 17 17 17 17 17 17 17 17 17 17 17 17
18 18 18 18 18 18 18 18 18 18 18 18 18 18 18 18 18 18 18 18 18 18 18 18 18 18 18 17 17 17 17 17 17 17 17 17 17 17 17 17 17 17 17
18 18 18 18 18 18 18 18 18 18 18 18 18 18 18 18 18 18 18 18 18 18 18 18 18 18 18 18 17 17 17 17 17 17 17 17 17 17 17 17 17 17 17
18 18 18 18 18 18 18 18 18 18 18 18 18 18 18 18 18 18 18 18 18 18 18 18 18 18 18 18 18 17 17 17 17 17 17 17 17 17 17 17 17 17 17
18 18 18 18 18 18 18 18 18 19 18 18 18 18 18 18 18 18 18 18 18 18 18 18 18 18 17 17 17 17 17 17 17 17 17 17 17 17 17 17 17 17 17
18 18 18 18 18 18 19 19 19 18 18 18 18 18 18 18 18 18 18 18 18 18 18 18 18 17 17 17 17 17 17 17 17 17 17 17 17 17 17 17 17 17 17
19 19 19 18 18 18 18 18 18 18 18 18 18 18 18 18 18 18 18 18 18 18 18 18 18 17 17 17 17 17 17 17 18 17 17 17 17 17 17 17 17 17 17
19 19 19 19 19 19 18 18 19 18 18 18 18 18 18 18 18 18 18 18 18 18 18 17 17 17 17 17 18 18 17 18 18 18 17 17 17 17 17 17 17 16 16
19 19 19 19 19 19 19 18 19 18 18 18 18 18 18 18 18 18 18 18 18 18 17 17 17 17 17 17 18 18 18 18 18 18 18 17 17 17 17 17 17 17 17
19 19 19 19 19 19 19 19 19 19 18 18 18 18 18 18 18 18 18 18 18 18 18 17 17 17 17 18 18 18 18 18 18 18 18 17 17 17 17 17 17 17 17
19 19 19 19 19 19 19 19 18 18 18 18 18 18 18 18 18 18 18 18 18 18 18 18 18 18 18 18 18 18 18 18 18 18 18 17 17 17 17 17 17 17 17
19 19 19 19 19 19 19 18 18 18 18 18 18 18 18 18 18 18 18 18 18 18 18 18 18 18 18 18 18 18 18 18 18 18 18 17 17 17 17 17 17 17 17
19 19 19 19 19 19 19 19 18 18 18 18 18 18 18 18 18 18 18 18 18 18 18 18 18 18 18 18 18 18 18 18 18 18 18 18 17 17 17 17 17 17 17
20 19 19 19 19 19 19 19 19 18 18 18 18 18 18 18 18 18 18 18 18 18 18 18 18 18 18 18 18 18 18 18 18 18 18 18 17 17 17 17 17 17 17
20 20 19 19 19 19 19 19 19 18 18 18 18 18 18 18 18 18 18 18 18 18 18 18 18 18 18 18 18 18 18 18 18 18 18 18 17 17 17 17 17 17 17
20 20 20 19 19 19 19 19 19 18 18 18 18 18 18 18 18 18 18 18 18 18 18 18 18 18 18 18 18 18 18 18 18 18 17 17 17 17 17 17 17 17 17
20 20 20 20 19 19 19 19 19 18 18 18 18 18 18 18 18 18 18 18 18 18 18 18 18 18 18 18 18 18 18 18 18 18 17 17 17 17 17 17 17 17 17
20 20 20 20 20 19 19 19 19 19 19 18 18 18 18 18 18 18 18 18 18 18 18 18 18 18 18 17 17 17 17 18 18 18 17 17 17 17 17 17 17 17 17
20 20 20 20 20 19 19 19 19 19 19 19 18 18 18 18 18 18 18 18 18 18 18 18 17 17 17 17 17 17 17 17 17 17 17 17 17 17 17 17 17 17 17
21 21 20 20 20 20 19 19 19 19 19 19 18 18 18 18 18 18 18 18 18 18 18 17 17 17 17 17 17 17 17 17 17 17 17 17 17 17 17 17 17 17 17
21 21 21 20 20 20 19 19 19 19 19 18 18 18 18 18 18 18 18 18 18 18 18 17 17 17 17 17 17 17 17 17 17 17 17 17 17 17 17 16 16 16 16
22 22 21 21 20 20 19 19 19 19 19 19 18 18 18 18 18 18 18 18 17 17 17 17 17 17 17 17 17 17 17 17 17 16 17 17 17 16 16 16 16 16 16
22 22 22 21 20 20 20 19 19 19 19 19 18 18 18 18 18 18 18 18 17 17 17 17 17 17 17 17 17 17 17 17 17 17 16 16 16 16 16 16 16 16 16
22 22 22 21 21 20 20 19 19 19 19 19 19 18 18 18 18 18 18 18 18 17 17 17 17 17 17 17 17 17 17 17 17 17 16 16 16 16 16 16 16 16 16
Wind_Speed
3 3 8 11 13 13 13 13 14 14 15 16 16 16 16 17 17 17 18 17 17 18 18 17 17 18 18 18 18 18 18 18 17 17 16 17 16 16 16 16 16 15 17
2 4 9 11 12 13 13 13 14 15 15 16 16 17 17 17 18 18 18 17 18 18 17 17 17 17 17 17 17 17 17 16 16 16 16 15 15 15 15 15 14 13 16
4 5 8 11 12 13 13 13 14 15 16 16 16 16 17 17 18 17 17 17 18 18 18 18 17 16 16 16 16 16 16 16 15 15 14 12 13 14 15 15 15 15 15
5 5 8 11 11 12 13 13 14 15 16 16 16 16 16 17 17 17 17 17 17 17 17 17 16 16 16 16 16 15 15 15 15 14 11 10 10 13 13 14 14 15 14
5 5 8 11 11 12 12 13 14 15 15 15 15 15 16 16 16 16 16 16 16 16 16 16 15 15 15 15 14 14 14 14 14 11 10 9 10 12 13 13 13 14 14
5 5 8 10 11 11 12 12 13 14 15 15 14 14 15 15 15 15 15 15 15 15 15 15 14 14 14 13 13 13 13 13 11 10 9 9 9 12 12 12 13 13 13
5 5 7 10 11 11 12 12 13 13 13 14 14 14 14 14 14 14 14 14 14 14 14 13 13 13 13 12 12 12 11 11 10 9 9 8 9 11 12 12 12 12 12
5 5 7 9 10 11 12 12 12 12 13 13 13 13 13 13 13 13 13 13 13 12 12 12 11 11 11 11 11 11 10 10 9 8 8 8 10 11 11 11 12 12 12
5 5 6 7 8 10 10 11 11 11 11 11 11 12 12 12 12 12 12 12 11 11 10 10 10 10 10 10 9 9 9 8 8 7 8 7 10 10 10 10 11 11 11
5 4 5 6 7 7 7 9 10 10 9 10 10 10 10 10 10 10 9 10 9 9 8 8 8 8 8 7 7 7 7 7 7 6 6 7 10 10 10 10 10 11 11
3 3 3 4 5 5 5 6 7 7 8 8 7 9 8 7 7 6 7 8 7 7 7 6 6 6 6 6 6 6 6 5 6 5 6 8 9 9 9 10 10 10 10
2 1 1 2 3 3 3 5 5 5 5 6 6 6 6 6 5 5 5 5 5 5 5 5 5 5 4 3 4 5 4 5 5 5 6 9 9 9 9 10 10 10 10
3 2 2 2 2 2 2 3 3 3 4 4 4 4 4 4 3 4 4 4 4 4 4 4 4 3 2 2 2 3 5 5 5 5 6 8 9 10 10 10 10 10 10
4 3 2 2 2 1 1 1 1 2 2 1 1 2 2 2 2 2 2 2 3 3 3 3 2 2 2 2 3 3 4 4 5 5 6 8 9 10 10 10 10 10 10
4 4 4 3 2 2 1 0 1 1 1 1 1 1 2 1 0 0 1 1 1 1 2 2 2 2 2 2 2 3 3 4 5 5 5 7 9 10 11 10 9 10 10
5 5 4 4 3 3 2 1 1 1 1 1 1 2 3 2 1 0 0 1 1 1 1 1 1 1 1 1 1 1 3 3 4 5 5 6 7 8 9 8 8 8 9
6 5 5 5 3 3 2 2 1 1 2 1 2 2 3 3 3 2 1 1 1 1 1 2 2 2 1 1 1 1 1 3 4 4 5 5 5 7 8 8 8 7 8
6 5 5 5 5 4 3 2 1 1 2 1 2 2 3 3 3 2 2 1 0 1 2 2 1 1 1 1 1 1 0 1 2 3 4 4 4 5 6 8 8 7 7
6 6 5 4 5 5 3 2 1 1 1 1 1 1 2 2 3 3 2 1 1 1 1 1 1 1 1 1 1 1 0 0 1 2 3 3 4 4 4 5 7 7 8
6 5 5 4 4 4 3 2 2 1 1 1 1 1 2 2 3 3 2 1 1 1 1 1 1 1 1 1 1 1 1 0 1 1 2 2 3 4 4 4 4 6 7
5 5 5 5 4 4 2 2 2 1 0 0 1 1 2 2 2 2 1 1 1 2 2 2 2 1 1 1 1 1 2 1 1 1 2 2 2 3 2 3 4 4 4
7 6 5 5 5 4 3 2 2 2 1 1 1 1 1 2 2 2 2 1 1 1 1 2 2 1 0 1 1 1 1 2 2 1 1 2 2 2 2 2 3 4 4
7 7 7 5 5 4 4 3 2 2 2 1 1 1 1 1 1 1 1 1 1 1 1 2 2 2 1 1 1 2 2 2 1 2 1 1 1 1 2 2 2 3 3
8 7 6 6 5 4 4 4 4 3 2 1 1 0 1 1 1 1 1 1 1 1 1 2 2 2 2 1 1 1 2 2 2 0 1 1 0 1 1 1 1 1 1
7 7 7 6 5 5 5 5 4 3 2 1 1 1 0 0 0 0 1 1 1 0 1 1 1 2 2 2 2 1 1 1 1 2 1 1 2 1 1 1 1 1 1
6 6 7 6 5 5 5 5 5 4 3 2 1 1 0 0 0 0 1 1 1 1 1 1 1 2 2 2 2 2 2 2 2 2 2 1 0 1 2 2 2 3 3
Wind_Direction
11 27 67 77 84 88 89 91 93 96 96 98 100 101 102 106 109 111 115 114 113 113 113 113 112 112 112 112 113 114 114 115 116 117 116 117 119 119 120 119 118 119 121
61 53 76 80 84 86 87 89 92 95 96 98 100 101 102 105 107 107 110 112 113 112 111 110 110 112 113 113 114 115 115 115 116 117 116 117 119 120 120 121 121 124 126
58 62 80 82 85 86 87 89 92 95 98 99 98 100 101 103 105 106 107 109 111 109 108 108 109 110 112 114 114 115 116 116 115 115 114 115 119 121 123 124 125 125 125
71 67 86 85 85 86 87 91 94 97 100 100 99 100 101 101 104 106 108 108 110 110 109 109 109 109 109 112 113 113 115 116 115 112 109 114 119 125 126 127 127 128 127
67 69 89 87 88 88 89 94 96 99 102 103 102 101 103 104 105 107 109 109 110 110 109 109 109 109 110 111 112 113 116 117 116 111 110 113 118 128 130 131 132 132 132
65 69 90 89 90 90 91 96 98 100 102 103 102 102 104 106 108 109 109 109 109 110 110 110 110 109 111 113 113 114 117 118 114 113 117 123 127 133 135 136 135 134 135
68 64 87 91 89 89 92 95 99 99 101 101 102 103 103 105 107 109 110 110 111 111 111 111 111 112 112 114 116 116 117 120 118 119 122 129 137 140 142 140 138 137 138
77 64 77 90 90 91 93 96 99 101 101 101 103 103 104 104 106 108 110 112 112 112 112 112 112 113 113 113 118 120 122 123 125 128 128 136 142 143 143 142 142 143 142
72 62 59 73 86 92 94 97 98 99 101 102 103 105 105 105 106 106 108 111 112 112 113 116 116 113 113 114 117 122 126 127 128 137 139 144 148 148 148 149 148 149 150
66 55 53 63 69 75 88 97 102 101 103 105 106 106 105 104 103 105 106 108 110 111 113 117 117 115 114 116 119 126 131 125 130 138 145 154 157 155 157 159 158 157 157
88 51 51 59 66 73 81 92 98 102 102 101 98 101 91 79 80 88 102 108 107 108 110 111 114 114 113 116 120 125 127 132 141 147 157 164 165 165 167 169 168 168 166
149 118 74 69 63 64 80 78 72 73 79 80 77 77 77 71 71 77 84 98 101 102 99 95 97 98 96 106 129 129 131 146 154 165 174 177 178 177 176 176 176 175 175
168 158 152 123 92 70 58 74 72 71 73 72 79 80 76 59 55 52 44 43 47 58 60 65 68 71 87 109 133 150 157 165 173 180 186 187 187 187 187 186 187 187 186
167 179 177 152 131 128 98 72 85 86 82 81 89 99 93 64 44 40 47 39 32 37 48 43 53 55 82 114 151 162 170 178 181 186 195 197 194 196 198 196 195 195 194
182 190 185 170 170 166 132 120 115 122 140 189 190 165 151 137 123 49 26 18 26 53 60 51 52 50 66 85 142 168 179 185 183 185 196 202 204 203 203 202 199 201 201
192 193 182 176 178 166 158 166 136 160 170 178 210 190 180 182 175 152 12 32 26 41 57 74 69 67 63 90 111 165 183 187 189 194 199 203 206 202 202 204 203 202 204
190 183 183 182 162 160 172 187 177 178 162 172 229 205 192 188 184 171 132 71 10 13 56 64 62 66 61 66 68 109 163 185 191 194 199 201 204 202 201 207 211 213 216
178 175 187 187 162 165 165 169 156 158 152 184 220 203 200 195 179 156 148 167 215 83 98 97 87 68 54 63 32 3 106 165 191 197 195 201 204 206 211 218 219 220 225
177 173 176 177 163 166 160 141 138 129 140 181 179 184 196 189 171 156 157 180 158 110 106 125 106 124 114 72 47 25 50 176 200 197 195 201 205 209 214 226 228 225 228
171 172 176 176 167 153 136 111 89 70 62 90 156 203 194 187 176 163 160 170 151 134 125 137 138 125 138 123 81 36 17 250 165 199 209 202 204 216 222 226 236 243 244
170 178 181 175 171 147 133 138 130 152 144 85 171 204 200 188 180 172 171 166 163 166 181 169 142 135 139 128 90 32 23 40 78 221 212 204 213 219 224 235 237 244 256
182 186 186 186 178 173 161 150 150 145 143 135 59 35 211 197 202 181 158 169 181 175 158 163 154 150 202 152 140 111 357 1 1 296 204 207 219 216 226 241 233 235 244
187 187 190 191 190 186 164 128 103 79 54 59 40 20 6 164 169 177 170 158 149 164 186 196 179 181 208 215 176 159 165 227 305 356 355 232 217 229 242 250 241 239 240
193 183 179 181 187 183 163 163 164 167 184 210 174 144 9 69 106 167 164 144 145 167 193 214 193 194 189 229 232 216 202 177 171 181 7 35 75 252 270 303 338 295 261
185 178 179 178 185 181 173 176 174 182 188 168 125 137 62 48 114 208 183 144 135 207 242 232 197 201 198 205 213 204 192 180 181 176 230 1 31 29 23 29 37 33 29
172 173 172 171 182 181 176 177 182 192 191 157 152 171 207 322 332 308 198 163 160 200 243 251 221 214 221 216 220 203 182 177 187 179 197 216 24 27 40 40 42 40 48
Height
1507 1505 1503 1501 1501 1501 1502 1503 1503 1504 1504 1505 1506 1507 1507 1508 1509 1510 1511 1514 1516 1518 1520 1521 1523 1525 1527 1529 1531 1533 1535 1536 1538 1540 1542 1544 1545 1547 1548 1550 1551 1552 1554
1509 1508 1507 1506 1505 1505 1505 1506 1506 1507 1507 1508 1509 1510 1511 1512 1513 1514 1515 1517 1519 1521 1522 1524 1526 1528 1529 1531 1534 1536 1538 1539 1541 1543 1544 1546 1548 1549 1551 1552 1553 1554 1556
1511 1510 1510 1509 1509 1509 1509 1509 1509 1510 1511 1511 1512 1513 1514 1515 1516 1518 1519 1520 1522 1524 1525 1527 1529 1531 1533 1534 1536 1539 1540 1542 1544 1545 1547 1548 1550 1551 1553 1554 1555 1556 1558
1513 1513 1513 1512 1512 1512 1512 1512 1512 1513 1514 1515 1516 1517 1518 1519 1520 1522 1523 1524 1525 1527 1528 1530 1532 1534 1536 1537 1539 1541 1543 1545 1546 1547 1549 1550 1552 1553 1555 1556 1557 1558 1559
1516 1516 1516 1515 1515 1515 1515 1515 1515 1516 1517 1518 1519 1520 1521 1522 1524 1525 1526 1527 1529 1530 1532 1533 1535 1537 1539 1540 1542 1544 1545 1547 1548 1549 1551 1552 1553 1555 1556 1557 1559 1560 1561
1518 1518 1518 1518 1518 1517 1518 1518 1519 1520 1520 1521 1522 1524 1525 1526 1527 1528 1529 1530 1532 1533 1535 1537 1538 1540 1541 1543 1545 1546 1548 1549 1550 1552 1553 1554 1555 1556 1558 1559 1560 1561 1563
1521 1521 1521 1521 1521 1521 1521 1522 1522 1523 1524 1525 1526 1527 1528 1529 1530 1531 1532 1534 1535 1536 1538 1540 1541 1543 1544 1546 1547 1549 1550 1551 1552 1554 1555 1556 1557 1558 1559 1560 1561 1563 1564
1524 1524 1524 1524 1524 1524 1524 1525 1526 1527 1527 1528 1529 1530 1531 1532 1533 1534 1535 1537 1538 1540 1541 1543 1544 1545 1547 1548 1550 1551 1552 1553 1554 1555 1556 1557 1558 1559 1560 1561 1563 1564 1565
1527 1527 1527 1527 1527 1527 1528 1528 1529 1530 1531 1532 1532 1533 1534 1535 1536 1537 1538 1540 1541 1543 1544 1545 1547 1548 1549 1551 1552 1553 1554 1555 1556 1557 1558 1559 1560 1560 1561 1562 1563 1565 1566
1529 1529 1530 1530 1530 1530 1531 1531 1532 1533 1534 1534 1535 1536 1537 1538 1539 1540 1541 1543 1544 1545 1547 1548 1549 1550 1552 1553 1554 1555 1556 1556 1557 1558 1559 1560 1561 1562 1562 1563 1564 1566 1567
1531 1532 1532 1533 1533 1533 1534 1534 1535 1536 1536 1537 1538 1539 1540 1541 1542 1543 1544 1546 1547 1548 1549 1550 1551 1553 1554 1555 1555 1556 1557 1558 1559 1559 1560 1561 1561 1562 1563 1564 1565 1566 1567
1533 1534 1535 1535 1536 1536 1536 1537 1537 1538 1539 1540 1541 1542 1543 1544 1545 1546 1547 1548 1549 1550 1551 1552 1553 1554 1555 1556 1557 1558 1558 1559 1559 1560 1561 1561 1562 1563 1564 1564 1565 1566 1567
1536 1536 1537 1538 1538 1539 1539 1539 1539 1540 1541 1542 1543 1545 1545 1546 1547 1548 1549 1550 1551 1552 1553 1554 1555 1556 1556 1557 1558 1558 1559 1560 1560 1561 1561 1562 1562 1563 1564 1564 1565 1566 1567
1538 1539 1539 1540 1540 1541 1541 1541 1541 1542 1543 1544 1545 1546 1547 1548 1549 1550 1551 1552 1553 1554 1554 1555 1556 1557 1557 1558 1558 1559 1559 1560 1561 1561 1561 1562 1562 1563 1563 1564 1565 1566 1567
1539 1540 1541 1541 1542 1543 1543 1543 1544 1544 1545 1546 1547 1548 1549 1550 1551 1552 1553 1553 1554 1555 1555 1556 1557 1557 1558 1559 1559 1559 1559 1560 1560 1561 1561 1562 1562 1563 1563 1564 1565 1565 1566
1540 1541 1542 1543 1544 1544 1545 1545 1546 1546 1547 1548 1549 1550 1550 1551 1552 1553 1554 1554 1555 1556 1556 1557 1557 1557 1558 1559 1559 1559 1559 1560 1560 1560 1561 1561 1562 1562 1563 1563 1564 1565 1565
1541 1542 1543 1544 1545 1545 1546 1547 1548 1548 1549 1549 1550 1551 1551 1552 1553 1554 1554 1554 1556 1556 1557 1557 1557 1557 1558 1558 1558 1558 1559 1559 1560 1560 1560 1561 1561 1562 1562 1563 1563 1564 1564
1541 1543 1544 1545 1546 1546 1547 1548 1549 1549 1550 1551 1551 1552 1552 1553 1553 1554 1554 1554 1555 1556 1556 1557 1557 1557 1557 1557 1557 1558 1558 1558 1559 1559 1559 1560 1560 1561 1561 1562 1562 1563 1563
1542 1543 1544 1546 1546 1547 1548 1549 1550 1551 1551 1552 1552 1552 1553 1553 1553 1553 1554 1554 1555 1555 1556 1556 1556 1557 1557 1557 1556 1557 1557 1557 1558 1558 1558 1559 1559 1560 1560 1561 1561 1562 1562
1542 1543 1545 1546 1547 1548 1549 1550 1550 1551 1552 1552 1553 1553 1553 1553 1553 1553 1553 1554 1554 1555 1555 1556 1556 1556 1556 1556 1556 1556 1556 1556 1557 1557 1557 1558 1558 1559 1559 1560 1560 1560 1560
1541 1543 1544 1546 1547 1548 1549 1550 1551 1551 1552 1553 1553 1553 1553 1553 1553 1553 1553 1554 1554 1554 1555 1555 1555 1555 1555 1555 1555 1555 1555 1555 1555 1556 1556 1557 1557 1557 1558 1558 1558 1558 1558
1540 1542 1544 1545 1547 1548 1549 1550 1551 1552 1552 1553 1553 1553 1553 1553 1553 1553 1552 1553 1553 1554 1554 1554 1554 1554 1554 1554 1554 1554 1554 1555 1554 1554 1555 1555 1555 1556 1556 1556 1557 1556 1556
1539 1540 1542 1545 1546 1547 1549 1549 1550 1551 1551 1552 1552 1552 1553 1552 1552 1552 1552 1552 1552 1553 1553 1553 1553 1553 1553 1553 1553 1554 1553 1553 1553 1554 1553 1554 1554 1554 1554 1554 1555 1555 1555
1537 1539 1541 1543 1545 1546 1548 1548 1549 1549 1550 1551 1552 1552 1552 1552 1552 1552 1552 1552 1552 1551 1551 1552 1551 1551 1551 1551 1551 1551 1552 1552 1552 1552 1552 1552 1552 1553 1553 1553 1552 1552 1552
1535 1537 1539 1541 1543 1545 1546 1547 1548 1549 1549 1550 1550 1551 1551 1551 1551 1550 1550 1550 1550 1550 1550 1550 1550 1550 1550 1549 1549 1549 1549 1550 1550 1550 1550 1551 1551 1551 1551 1551 1551 1551 1550
1533 1535 1537 1539 1541 1543 1544 1545 1546 1547 1548 1548 1549 1549 1549 1549 1549 1549 1549 1549 1549 1549 1548 1548 1548 1548 1548 1547 1547 1547 1547 1547 1547 1548 1548 1549 1549 1550 1550 1549 1549 1549 1548